• In Hungary
  • List of Countries
  • For 7 days
  • Water Temperature
  • Satellite Maps
  • Weather Map
  • News
  • Weather Widgets
  • user-avatar
    Login

    Hourly Weather Bansko

    Today, 13 December, Wednesday

    Time Temperature Precipitation Wind Pressure Humidity
    00:00 +8°C° 0 mm 1 mps 722 mmHg 86%
    01:00 +8°C° 0 mm 1 mps 722 mmHg 86%
    02:00 +7°C° 0 mm 1 mps 722 mmHg 86%
    03:00 +7°C° 0 mm 1 mps 722 mmHg 86%
    04:00 +7°C° 0 mm 1 mps 722 mmHg 86%
    05:00 +7°C° 0 mm 1 mps 722 mmHg 86%
    06:00 +7°C° 0 mm 1 mps 722 mmHg 85%
    07:00 +7°C° 0 mm 1 mps 722 mmHg 85%
    08:00 +7°C° 0 mm 1 mps 722 mmHg 84%
    09:00 +9°C° 0 mm 1 mps 722 mmHg 78%
    10:00 +11°C° 0 mm 1 mps 722 mmHg 73%
    11:00 +13°C° 0 mm 1 mps 722 mmHg 67%
    12:00 +14°C° 0 mm 1 mps 722 mmHg 65%
    13:00 +14°C° 0 mm 1 mps 722 mmHg 62%
    14:00 +15°C° 0 mm 1 mps 721 mmHg 60%
    15:00 +14°C° 0 mm 1 mps 721 mmHg 65%
    16:00 +12°C° 0 mm 1 mps 720 mmHg 70%
    17:00 +11°C° 0 mm 1 mps 720 mmHg 76%
    18:00 +9°C° 0 mm 2 mps 720 mmHg 75%
    19:00 +9°C° 0 mm 2 mps 720 mmHg 75%
    20:00 +9°C° 0 mm 2 mps 720 mmHg 75%
    21:00 +9°C° 0 mm 2 mps 719 mmHg 75%
    22:00 +9°C° 0 mm 2 mps 719 mmHg 75%
    23:00 +9°C° 0 mm 2 mps 719 mmHg 76%

    Tomorrow, 14 December, Thursday

    Time Temperature Precipitation Wind Pressure Humidity
    00:00 +9°C° 0 mm 2 mps 719 mmHg 77%
    01:00 +9°C° 0 mm 2 mps 719 mmHg 78%
    02:00 +8°C° 0 mm 2 mps 718 mmHg 80%
    03:00 +8°C° 0 mm 2 mps 718 mmHg 82%
    04:00 +8°C° 0 mm 2 mps 718 mmHg 83%
    05:00 +8°C° 0 mm 2 mps 718 mmHg 85%
    06:00 +8°C° 0 mm 1 mps 718 mmHg 86%
    07:00 +8°C° 0 mm 1 mps 718 mmHg 87%
    08:00 +8°C° 0 mm 1 mps 718 mmHg 88%
    09:00 +9°C° 0 mm 1 mps 719 mmHg 83%
    10:00 +9°C° 0 mm 2 mps 719 mmHg 77%
    11:00 +12°C° 0 mm 2 mps 719 mmHg 71%
    12:00 +12°C° 0 mm 2 mps 719 mmHg 67%
    13:00 +13°C° 0 mm 2 mps 718 mmHg 63%
    14:00 +13°C° 0 mm 2 mps 718 mmHg 59%
    15:00 +12°C° 0 mm 1 mps 718 mmHg 64%
    16:00 +10°C° 0 mm 1 mps 718 mmHg 69%
    17:00 +9°C° 0 mm 1 mps 718 mmHg 74%
    18:00 +9°C° 0 mm 1 mps 718 mmHg 75%
    19:00 +8°C° 0 mm 1 mps 719 mmHg 76%
    20:00 +7°C° 0 mm 1 mps 719 mmHg 77%
    21:00 +7°C° 0 mm 1 mps 719 mmHg 76%
    22:00 +7°C° 0 mm 1 mps 719 mmHg 75%
    23:00 +7°C° 0 mm 1 mps 719 mmHg 74%

    Day after tomorrow, 15 December, Friday

    Time Temperature Precipitation Wind Pressure Humidity
    00:00 +7°C° 0 mm 1 mps 719 mmHg 74%
    01:00 +7°C° 0 mm 1 mps 719 mmHg 74%
    02:00 +7°C° 0 mm 1 mps 719 mmHg 74%
    03:00 +7°C° 0 mm 1 mps 719 mmHg 73%
    04:00 +7°C° 0 mm 1 mps 718 mmHg 73%
    05:00 +7°C° 0 mm 1 mps 718 mmHg 72%
    06:00 +7°C° 0 mm 1 mps 718 mmHg 72%
    07:00 +7°C° 0 mm 1 mps 718 mmHg 71%
    08:00 +7°C° 0 mm 1 mps 718 mmHg 71%
    09:00 +8°C° 0 mm 2 mps 718 mmHg 66%
    10:00 +10°C° 0 mm 2 mps 718 mmHg 60%
    11:00 +13°C° 0 mm 2 mps 718 mmHg 55%
    12:00 +12°C° 0 mm 3 mps 718 mmHg 53%
    13:00 +13°C° 0 mm 3 mps 717 mmHg 52%
    14:00 +14°C° 0 mm 3 mps 717 mmHg 50%
    15:00 +12°C° 0 mm 3 mps 717 mmHg 56%
    16:00 +10°C° 0 mm 3 mps 716 mmHg 62%
    17:00 +9°C° 0 mm 2 mps 716 mmHg 68%
    18:00 +8°C° 0 mm 2 mps 716 mmHg 69%
    19:00 +8°C° 0 mm 2 mps 716 mmHg 71%
    20:00 +7°C° 0 mm 2 mps 716 mmHg 72%
    21:00 +7°C° 0 mm 2 mps 716 mmHg 73%
    22:00 +7°C° 0 mm 2 mps 716 mmHg 74%
    23:00 +7°C° 0 mm 2 mps 716 mmHg 76%

    16 December, Saturday

    Time Temperature Precipitation Wind Pressure Humidity
    00:00 +6°C° 0 mm 2 mps 716 mmHg 77%
    01:00 +6°C° 0 mm 2 mps 716 mmHg 78%
    02:00 +5°C° 0 mm 3 mps 716 mmHg 80%
    03:00 +6°C° 0 mm 2 mps 716 mmHg 80%
    04:00 +6°C° 0 mm 2 mps 715 mmHg 81%
    05:00 +6°C° 0 mm 2 mps 715 mmHg 81%
    06:00 +7°C° 0 mm 2 mps 715 mmHg 82%
    07:00 +7°C° 0 mm 2 mps 716 mmHg 82%
    08:00 +7°C° 0 mm 2 mps 716 mmHg 82%
    09:00 +8°C° 0 mm 3 mps 716 mmHg 77%
    10:00 +10°C° 0 mm 3 mps 716 mmHg 73%
    11:00 +11°C° 0 mm 3 mps 716 mmHg 68%
    12:00 +12°C° 0 mm 3 mps 715 mmHg 67%
    13:00 +12°C° 0 mm 4 mps 715 mmHg 66%
    14:00 +13°C° 0 mm 4 mps 714 mmHg 65%
    15:00 +12°C° 0.1 mm 3 mps 714 mmHg 71%
    16:00 +11°C° 0.1 mm 3 mps 714 mmHg 77%
    17:00 +10°C° 0.1 mm 2 mps 714 mmHg 83%
    18:00 +10°C° 0.3 mm 2 mps 714 mmHg 85%
    19:00 +9°C° 0.3 mm 2 mps 714 mmHg 87%
    20:00 +9°C° 0.3 mm 2 mps 714 mmHg 89%
    21:00 +9°C° 0.7 mm 2 mps 714 mmHg 90%
    22:00 +9°C° 0.7 mm 2 mps 713 mmHg 91%
    23:00 +9°C° 0.7 mm 2 mps 713 mmHg 92%

    17 December, Sunday

    Time Temperature Precipitation Wind Pressure Humidity
    00:00 +8°C° 0.5 mm 2 mps 713 mmHg 92%
    01:00 +8°C° 0.5 mm 2 mps 712 mmHg 91%
    02:00 +8°C° 0.5 mm 2 mps 712 mmHg 91%
    03:00 +8°C° 0.7 mm 2 mps 711 mmHg 91%
    04:00 +9°C° 0.7 mm 2 mps 711 mmHg 92%
    05:00 +9°C° 0.7 mm 2 mps 711 mmHg 92%
    06:00 +8°C° 1 mm 2 mps 712 mmHg 92%
    07:00 +8°C° 1 mm 2 mps 712 mmHg 92%
    08:00 +8°C° 1 mm 2 mps 713 mmHg 91%
    09:00 +7°C° 0.5 mm 3 mps 714 mmHg 88%
    10:00 +7°C° 0.5 mm 3 mps 714 mmHg 85%
    11:00 +7°C° 0.5 mm 3 mps 715 mmHg 82%
    12:00 +7°C° 0 mm 3 mps 716 mmHg 78%
    13:00 +7°C° 0 mm 3 mps 716 mmHg 74%
    14:00 +8°C° 0 mm 3 mps 716 mmHg 70%
    15:00 +7°C° 0 mm 3 mps 717 mmHg 72%
    16:00 +6°C° 0 mm 2 mps 717 mmHg 75%
    17:00 +4°C° 0 mm 2 mps 718 mmHg 78%
    18:00 +4°C° 0 mm 2 mps 718 mmHg 79%
    19:00 +3°C° 0 mm 2 mps 719 mmHg 79%
    20:00 +2°C° 0 mm 2 mps 720 mmHg 80%
    21:00 +2°C° 0 mm 2 mps 720 mmHg 79%
    22:00 +2°C° 0 mm 2 mps 721 mmHg 78%
    23:00 +2°C° 0 mm 2 mps 721 mmHg 77%

    18 December, Monday

    Time Temperature Precipitation Wind Pressure Humidity
    00:00 +2°C° 0 mm 2 mps 721 mmHg 77%
    01:00 +2°C° 0 mm 2 mps 722 mmHg 76%
    02:00 +2°C° 0 mm 2 mps 722 mmHg 76%
    03:00 +2°C° 0 mm 2 mps 722 mmHg 77%
    04:00 +1°C° 0 mm 2 mps 722 mmHg 77%
    05:00 +1°C° 0 mm 2 mps 722 mmHg 78%
    06:00 +1°C° 0 mm 2 mps 723 mmHg 78%
    07:00 +1°C° 0 mm 2 mps 723 mmHg 78%
    08:00 +1°C° 0 mm 2 mps 723 mmHg 78%
    09:00 +2°C° 0 mm 2 mps 724 mmHg 74%
    10:00 +3°C° 0 mm 2 mps 724 mmHg 69%
    11:00 +3°C° 0 mm 2 mps 724 mmHg 65%
    12:00 +4°C° 0 mm 2 mps 724 mmHg 64%
    13:00 +4°C° 0 mm 2 mps 724 mmHg 63%
    14:00 +3°C° 0 mm 3 mps 723 mmHg 62%
    15:00 +2°C° 0.1 mm 3 mps 723 mmHg 67%
    16:00 +2°C° 0.1 mm 3 mps 723 mmHg 72%
    17:00 +2°C° 0.1 mm 2 mps 723 mmHg 77%
    18:00 +1°C° 0.3 mm 2 mps 723 mmHg 79%
    19:00 +1°C° 0.3 mm 2 mps 723 mmHg 80%
    20:00 +1°C° 0.3 mm 2 mps 724 mmHg 82%
    21:00 -1°C° 0.3 mm 2 mps 724 mmHg 83%
    22:00 -1°C° 0.3 mm 2 mps 724 mmHg 83%
    23:00 -1°C° 0.3 mm 2 mps 724 mmHg 84%
    Show more